Location: Saint Thomas
(35.4420°N, 90.1429°W)
Time: 21:43:31
(UTC+00:00)

Envisat - Visible Passes

Search period start: 04 October 2024 00:00
Search period end: 14 October 2024 00:00
Orbit: 762 x 764 km, 98.3° (Epoch: 04 October)

Date Brightness Start Highest point End Pass type
(mag) Time Alt. Az. Time Alt. Az. Time Alt. Az.
04 Oct 5.3 08:53:39 10° NNE 08:54:56 18° NNE 08:54:56 18° NNE visible
04 Oct 5.1 10:34:42 10° NW 10:35:04 11° NW 10:35:04 11° NW visible
05 Oct 6.0 08:16:52 10° NE 08:16:53 10° NE 08:16:53 10° NE visible
05 Oct 4.9 09:55:36 10° N 09:57:02 17° NNW 09:57:02 17° NNW visible
06 Oct 5.1 09:17:38 10° N 09:18:59 19° N 09:18:59 19° N visible
07 Oct 5.7 08:40:20 10° NNE 08:40:56 13° NNE 08:40:56 13° NNE visible
07 Oct 5.1 10:20:25 10° NNW 10:21:05 12° NNW 10:21:05 12° NNW visible
08 Oct 5.0 09:41:52 10° N 09:43:02 16° N 09:43:02 16° N visible
09 Oct 5.4 09:04:09 10° NNE 09:04:58 15° NNE 09:04:58 15° NNE visible
10 Oct 5.2 10:06:26 10° NNW 10:07:03 13° NNW 10:07:03 13° NNW visible
11 Oct 5.3 09:28:13 10° N 09:28:59 14° N 09:28:59 14° N visible
12 Oct 5.8 08:50:44 10° NNE 08:50:56 11° NNE 08:50:56 11° NNE visible
13 Oct 5.3 09:52:34 10° N 09:53:00 12° N 09:53:00 12° N visible
